Weather History for Lambertville, MI

Change the Weather History Date:

Friday, April 12, 2013

  Actual Average (KTOL) Record (KTOL)
Temperature  
Mean Temperature 40 °F 48 °F  
Max Temperature 42 °F 59 °F 85 °F (1977)
Min Temperature 38 °F 38 °F 17 °F (1976)
Degree Days  
Heating Degree Days 25 17  
Month to date heating degree days 229  
Since 1 July heating degree days 5655  
Cooling Degree Days 0 0  
Month to date cooling degree days 0  
Year to date cooling degree days 0  
Moisture  
Dew Point 35 °F    
Average Humidity 80    
Maximum Humidity 93    
Minimum Humidity 66    
Precipitation  
Precipitation 0.00 in 0.11 in 1.02 in (2002)
Month to date precipitation 1.26  
Year to date precipitation 7.86  
Snow  
Snow 0.00 in 0.00 in - ()
Month to date snowfall 0.8  
Since 1 July snowfall 37.0  
Snow Depth -    
Sea Level Pressure  
Sea Level Pressure 29.66 in    
Wind  
Wind Speed 10 mph (WSW)    
Max Wind Speed 18 mph    
Max Gust Speed 25 mph    
Visibility 8 miles    
Events Rain    
T = Trace of Precipitation, MM = Missing Value Source: NWS Daily Summary

Daily Weather History Graph

Daily Weather History Graph

Search for Another Location

Airport:

Trip Planner

Search our weather history database for the weather conditions in past years. The results will help you decide how hot, cold, wet, or windy it might be!

Date:

Astronomy

Apr. 12, 2013 Rise Set
Actual Time 6:58 AM EDT 8:12 PM EDT
Civil Twilight 6:30 AM EDT 8:41 PM EDT
Nautical Twilight 5:55 AM EDT 9:15 PM EDT
Astronomical Twilight 5:19 AM EDT 9:51 PM EDT
Moon 8:06 AM EDT (4/12) 10:44 PM EDT (4/12)
Length of Visible Light 14h 10m
Length of Day
13h 13m
Waxing Crescent, 5% of the Moon is Illuminated
Apr 12
Waxing Crescent
Apr 18
First Quarter
Apr 25
Full
May 2
Last Quarter
May 9
New

Hourly Weather History & Observations

Time (EDT) Temp. Windchill Dew Point Humidity Pressure Visibility Wind Dir Wind Speed Gust Speed Precip Events Conditions
12:15 AM 38.5 °F 30.3 °F 36.0 °F 91% 29.60 in 10.0 mi East 13.8 mph 19.6 mph N/A   Light Drizzle
12:35 AM 38.5 °F 30.7 °F 36.0 °F 91% 29.59 in 5.0 mi East 12.7 mph 19.6 mph N/A Rain Rain
12:55 AM 38.5 °F 32.1 °F 36.1 °F 91% 29.58 in 4.0 mi ENE 9.2 mph 17.3 mph N/A Rain Light Rain
1:15 AM 38.5 °F 31.6 °F 36.1 °F 91% 29.57 in 5.0 mi East 10.4 mph 19.6 mph N/A Rain Light Rain
1:35 AM 38.7 °F 32.9 °F 36.5 °F 92% 29.58 in 5.0 mi East 8.1 mph - N/A Rain Light Rain
1:55 AM 38.8 °F 33.2 °F 36.5 °F 91% 29.59 in 2.5 mi East 8.1 mph - N/A Rain Rain
2:15 AM 38.8 °F 33.2 °F 36.5 °F 91% 29.56 in 4.0 mi ENE 8.1 mph - N/A Rain Light Rain
2:35 AM 38.7 °F 31.4 °F 36.5 °F 92% 29.55 in 5.0 mi East 11.5 mph 18.4 mph N/A Rain Light Rain
2:55 AM 38.7 °F 32.9 °F 36.5 °F 92% 29.53 in 10.0 mi East 8.1 mph - N/A Rain Light Rain
3:15 AM 38.7 °F 32.4 °F 36.5 °F 92% 29.52 in 5.0 mi East 9.2 mph 19.6 mph N/A   Overcast
3:35 AM 38.7 °F 32.9 °F 36.3 °F 91% 29.51 in 5.0 mi East 8.1 mph 21.9 mph N/A Rain Rain
3:55 AM 39.2 °F 35.9 °F 36.7 °F 91% 29.54 in 3.0 mi NW 4.6 mph - N/A Rain Rain
4:15 AM 38.7 °F 34.3 °F 36.1 °F 91% 29.56 in 3.0 mi NNE 5.8 mph - N/A Rain Rain
4:35 AM 38.7 °F 35.2 °F 36.3 °F 91% 29.55 in 3.0 mi North 4.6 mph - N/A Rain Rain
4:55 AM 38.5 °F 35.0 °F 36.5 °F 93% 29.55 in 5.0 mi North 4.6 mph - N/A Rain Rain
5:15 AM 38.3 °F 33.9 °F 36.3 °F 93% 29.53 in 7.0 mi NNE 5.8 mph - N/A Rain Light Rain
5:35 AM 38.3 °F 35.9 °F 36.1 °F 92% 29.52 in 7.0 mi North 3.5 mph - N/A Rain Rain
5:55 AM 38.5 °F 35.0 °F 36.5 °F 93% 29.54 in 10.0 mi NW 4.6 mph - N/A Rain Light Rain
6:15 AM 38.3 °F - 36.0 °F 91% 29.55 in 10.0 mi Calm Calm - N/A Rain Light Rain
6:35 AM 38.5 °F 36.1 °F 36.0 °F 91% 29.55 in 10.0 mi NW 3.5 mph - N/A   Overcast
6:55 AM 39.0 °F - 36.1 °F 89% 29.57 in 10.0 mi Calm Calm - N/A   Overcast
7:15 AM 38.8 °F 36.5 °F 36.1 °F 90% 29.57 in 10.0 mi WSW 3.5 mph - N/A   Overcast
7:35 AM 38.7 °F 35.2 °F 36.0 °F 90% 29.57 in 7.0 mi WSW 4.6 mph - N/A   Overcast
7:55 AM 38.8 °F 36.5 °F 36.5 °F 91% 29.58 in 1.2 mi West 3.5 mph - N/A   Overcast
8:15 AM 39.0 °F 35.7 °F 36.7 °F 91% 29.59 in 1.8 mi West 4.6 mph - N/A   Overcast
8:35 AM 39.2 °F 35.9 °F 36.7 °F 91% 29.59 in 2.0 mi WSW 4.6 mph - N/A   Overcast
8:55 AM 39.2 °F 35.9 °F 36.9 °F 91% 29.60 in 4.0 mi WSW 4.6 mph - N/A   Overcast
9:15 AM 39.7 °F 35.6 °F 37.4 °F 91% 29.60 in 10.0 mi WSW 5.8 mph - N/A   Overcast
9:35 AM 40.1 °F 36.1 °F 37.4 °F 90% 29.60 in 5.0 mi WSW 5.8 mph 19.6 mph N/A   Overcast
9:55 AM 40.6 °F 34.3 °F 38.1 °F 91% 29.60 in 4.0 mi WSW 10.4 mph - N/A   Overcast
10:15 AM 41.7 °F 35.2 °F 38.8 °F 89% 29.61 in 7.0 mi WSW 11.5 mph 18.4 mph N/A   Overcast
10:55 AM 42.1 °F 33.6 °F 36.7 °F 81% 29.62 in 10.0 mi WSW 18.4 mph 24.2 mph N/A   Overcast
11:15 AM 41.7 °F 34.1 °F 36.1 °F 81% 29.63 in 10.0 mi WSW 15.0 mph 19.6 mph N/A   Overcast
11:35 AM 41.9 °F 34.6 °F 35.6 °F 78% 29.64 in 7.0 mi WSW 13.8 mph 21.9 mph N/A   Overcast
11:55 AM 41.2 °F 33.4 °F 34.0 °F 76% 29.65 in 10.0 mi WSW 15.0 mph 24.2 mph N/A   Overcast
12:15 PM 41.5 °F 34.2 °F 33.3 °F 72% 29.66 in 10.0 mi WSW 13.8 mph 25.3 mph N/A   Overcast
12:35 PM 41.7 °F 34.8 °F 32.9 °F 71% 29.66 in 10.0 mi WSW 12.7 mph 19.6 mph N/A   Overcast
12:55 PM 41.0 °F 33.1 °F 32.4 °F 71% 29.67 in 10.0 mi WSW 15.0 mph 25.3 mph N/A   Overcast
1:15 PM 40.8 °F 32.9 °F 32.2 °F 71% 29.68 in 10.0 mi WSW 15.0 mph 21.9 mph N/A   Overcast
1:35 PM 40.5 °F 34.1 °F 31.5 °F 70% 29.68 in 10.0 mi WSW 10.4 mph 19.6 mph N/A   Overcast
1:55 PM 41.7 °F 33.7 °F 31.5 °F 67% 29.68 in 10.0 mi WSW 16.1 mph 23.0 mph N/A   Overcast
2:15 PM 41.4 °F 34.3 °F 31.3 °F 67% 29.69 in 10.0 mi WSW 12.7 mph 20.7 mph N/A   Overcast
2:35 PM 41.4 °F 34.0 °F 30.7 °F 66% 29.70 in 10.0 mi WSW 13.8 mph 20.7 mph N/A   Overcast
2:55 PM 41.2 °F 33.0 °F 31.1 °F 67% 29.70 in 10.0 mi WSW 16.1 mph 24.2 mph N/A   Overcast
3:15 PM 41.0 °F 33.5 °F 32.0 °F 70% 29.71 in 10.0 mi WSW 13.8 mph 19.6 mph N/A   Overcast
3:35 PM 41.0 °F 34.7 °F 32.0 °F 70% 29.71 in 10.0 mi WSW 10.4 mph 21.9 mph N/A   Overcast
3:55 PM 41.7 °F 34.8 °F 32.0 °F 68% 29.72 in 10.0 mi WSW 12.7 mph 20.7 mph N/A   Overcast
4:15 PM 42.1 °F 35.7 °F 32.0 °F 67% 29.72 in 10.0 mi WSW 11.5 mph 23.0 mph N/A   Overcast
4:35 PM 42.1 °F 35.7 °F 32.0 °F 67% 29.73 in 10.0 mi WSW 11.5 mph 18.4 mph N/A   Overcast
4:55 PM 42.1 °F 34.9 °F 32.0 °F 67% 29.73 in 10.0 mi SW 13.8 mph 20.7 mph N/A   Overcast
5:15 PM 42.6 °F 35.2 °F 32.0 °F 66% 29.74 in 10.0 mi WSW 15.0 mph 20.7 mph N/A   Overcast
5:35 PM 42.1 °F 35.2 °F 32.5 °F 69% 29.74 in 10.0 mi WSW 12.7 mph 24.2 mph N/A   Overcast
5:55 PM 42.4 °F 35.0 °F 32.7 °F 68% 29.75 in 10.0 mi WSW 15.0 mph 21.9 mph N/A   Overcast
6:15 PM 42.8 °F 35.1 °F 32.2 °F 66% 29.75 in 10.0 mi WSW 16.1 mph 24.2 mph N/A   Overcast
6:35 PM 42.8 °F 37.0 °F 32.4 °F 67% 29.76 in 10.0 mi SW 10.4 mph 23.0 mph N/A   Overcast
6:55 PM 42.6 °F 38.4 °F 32.5 °F 68% 29.76 in 10.0 mi SW 6.9 mph 23.0 mph N/A   Overcast
7:15 PM 42.8 °F 37.5 °F 32.4 °F 67% 29.77 in 10.0 mi WSW 9.2 mph 18.4 mph N/A   Overcast
7:35 PM 42.3 °F 35.5 °F 33.3 °F 70% 29.77 in 10.0 mi SW 12.7 mph 19.6 mph N/A   Overcast
7:55 PM 41.4 °F 34.7 °F 34.0 °F 75% 29.78 in 10.0 mi SW 11.5 mph 19.6 mph N/A   Overcast
8:15 PM 41.2 °F 35.0 °F 34.3 °F 77% 29.78 in 10.0 mi SW 10.4 mph - N/A   Overcast
8:35 PM 41.4 °F 36.8 °F 34.0 °F 75% 29.78 in 10.0 mi SW 6.9 mph - N/A   Overcast
8:55 PM 41.4 °F 37.6 °F 34.2 °F 76% 29.78 in 10.0 mi SW 5.8 mph - N/A   Overcast
9:15 PM 41.4 °F 36.8 °F 34.0 °F 75% 29.79 in 10.0 mi SW 6.9 mph - N/A   Overcast
9:35 PM 41.9 °F 37.5 °F 34.0 °F 73% 29.79 in 10.0 mi SW 6.9 mph - N/A   Overcast
9:55 PM 41.9 °F 36.9 °F 34.2 °F 74% 29.80 in 10.0 mi SW 8.1 mph - N/A   Overcast
10:15 PM 41.9 °F 35.9 °F 34.7 °F 76% 29.80 in 10.0 mi SW 10.4 mph 17.3 mph N/A   Overcast
10:35 PM 41.9 °F 36.3 °F 35.4 °F 78% 29.80 in 10.0 mi SW 9.2 mph 18.4 mph N/A   Overcast
10:55 PM 41.5 °F 36.4 °F 36.0 °F 81% 29.81 in 10.0 mi SW 8.1 mph 17.3 mph N/A   Overcast
11:15 PM 41.5 °F 34.6 °F 36.0 °F 81% 29.81 in 10.0 mi WSW 12.7 mph 18.4 mph N/A   Overcast
11:35 PM 41.7 °F 36.1 °F 36.0 °F 80% 29.82 in 10.0 mi WSW 9.2 mph 18.4 mph N/A   Overcast
11:55 PM 41.9 °F 35.9 °F 35.8 °F 79% 29.81 in 10.0 mi WSW 10.4 mph 17.3 mph N/A   Overcast